Location: Beuerbach
(48.1459°N, 10.9174°E)
Time: 19:44:46
(UTC+00:00)

MOZ.5/SAFIR/RUBIN 5/SL-8 - Pass Details

Date: 23 May 2024
Orbit: 671 x 700 km, 98.3° (Epoch: 24 June)

Event Time Altitude Azimuth Distance (km) Brightness Sun altitude
Exits shadow 01:18:35 27° 209° (SSW) 1,341 4.7 -15.7°
Maximum altitude 01:20:41 42° 262° (W) 995 4.3 -15.5°
Drops below altitude 10° 01:25:11 10° 333° (NNW) 2,160 6.8 -15.1°
Sets 01:27:33 0° 341° (NNW) 3,077 7.7 -14.9°
